Regional Weather Roundup
Issued by NWS State College, PA

Home | Current Version | Previous Version | Graphics & Text | Print | Product List | Glossary On
Versions: 1 2 3 4 5 6 7 8 9 10 11 12 13 14 15 16 17 18 19 20 21 22 23 24 25 26 27 28 29 30 31 32 33 34 35 36 37 38 39 40 41 42 43 44 45 46 47 48 49 50
000
ASUS41 KCTP 210810
RWRCTP

REGIONAL WEATHER ROUNDUP
NATIONAL WEATHER SERVICE STATE COLLEGE PA
400 AM EDT SAT APR 21 2018

Note: "fair" indicates few or no clouds below 12,000 feet with no
significant weather and/or obstructions to visibility.

* = STATION THAT DOES NOT REPORT PRECIPITATION /E.G. RAIN...SNOW...ETC/
    THUNDER OR FOG.

PAZ002>004-007>009-013>016-020>023-029>032-210900-
WESTERN PENNSYLVANIA

CITY           SKY/WX    TMP DP  RH WIND       PRES   REMARKS
ERIE           FAIR      30  24  78 CALM      30.45S
MEADVILLE      FAIR      31  23  72 CALM      30.42S
FRANKLIN*      FAIR      31  21  66 CALM      30.43R
NEW CASTLE     FAIR      27  23  85 CALM      30.46R
BEAVER COUNTY  NOT AVBL
BUTLER*        FAIR      30  23  75 CALM      30.44S
PITTSBURGH INT FAIR      31  23  72 CALM      30.43R
PITTSBURGH     FAIR      36  22  56 NE3       30.43R
INDIANA*       CLEAR     28  27  93 CALM      30.47R
LATROBE        FAIR      28  25  86 CALM      30.45R
WASHINGTON CO* FAIR      29  24  82 CALM      30.46S
$$

PAZ004>006-010>012-017>019-024>028-033>037-041-042-045-046-049>053-210900-
CENTRAL PENNSYLVANIA

CITY           SKY/WX    TMP DP  RH WIND       PRES   REMARKS
BRADFORD       FAIR      26  21  81 CALM      30.39R
DUBOIS         FAIR      32  22  66 NW3       30.40S
CLEARFIELD     FAIR      28  23  81 S3        30.43R
JOHNSTOWN      FAIR      33  21  61 N3        30.39R
ALTOONA        FAIR      32  22  66 CALM      30.43R
STATE COLLEGE  FAIR      33  24  69 W3        30.43R
WILLIAMSPORT   FAIR      31  25  78 CALM      30.44R
SELINSGROVE    FAIR      30  25  81 CALM      30.45R
FT INDIANTOWN  FAIR      37  25  60 CALM      30.43R
CAPITAL CITY   FAIR      35  27  72 S3        30.45R
HARRISBURG     FAIR      34  26  72 NW3       30.44R
YORK           FAIR      28  25  88 CALM      30.44R
$$

PAZ038>040-043-044-047-048-054-055-060>062-067>071-210900-
EASTERN PENNSYLVANIA

CITY           SKY/WX    TMP DP  RH WIND       PRES   REMARKS
SCRANTON       FAIR      28  24  85 SE3       30.40R
MOUNT POCONO   FAIR      30  23  75 NW12      30.33R
ALLENTOWN      FAIR      35  23  61 W6        30.42R
QUAKERTOWN*    SUNNY     34  25  69 W3        30.42R
READING        FAIR      31  25  78 N3        30.43R
LANCASTER      FAIR      33  25  72 W8        30.44R
COATESVILLE    FAIR      34  23  64 W3        30.43R
POTTSTOWN      FAIR      30  23  75 CALM      30.44R
BLUE BELL      FAIR      32  28  86 CALM      30.43S
DOYLESTOWN     FAIR      32  24  72 CALM      30.40R
WILLOW GROVE   NOT AVBL
NORTH PHILA    FAIR      36  25  64 CALM      30.43R
PHILADELPHIA   FAIR      38  25  59 W5        30.44R
$$



USA.gov is the U.S. government's official web portal to all federal, state and local government web resources and services.